Station CNDO1 - 9063063 - Cleveland, OH Image indicating link to RSS feed of recent meteorological observations for station CNDO1


Conditions at CNDO1 as of
(12:54 pm EDT)
1654 GMT on 04/19/2024:
     

Click on the graph icon in the table below to see a time series plot of the last five days of that observation.

5-day plot - Wind Direction Wind Direction (WDIR): W ( 270 deg true )
5-day plot - Wind Speed Wind Speed (WSPD): 13.0 kts
5-day plot - Wind Gust Wind Gust (GST): 15.0 kts
5-day plot - Atmospheric Pressure Atmospheric Pressure (PRES):29.94 in
5-day plot - Air Temperature Air Temperature (ATMP): 49.6 °F
5-day plot - Water Temperature Water Temperature (WTMP): 52.5 °F
5-day plot - Wind Chill Wind Chill (CHILL): 44.2 °F
5-day plot - Wind Speed at 10 Meters Wind Speed at 10 meters (WSPD10M): 13.6 kts
5-day plot - Wind Speed at 20 Meters Wind Speed at 20 meters (WSPD20M): 13.6 kts
5-day plot -  Wind Speed, Wind Gust and Atmospheric Pressure Combined plot of Wind Speed, Gust, and Air Pressure
NOS Water Level Observation Network Water Level
Previous observations
TIME
(EDT)
5-day plot - Wind Direction
WDIR
 
5-day plot - Wind Speed
WSPD
kts
5-day plot - Wind Gust
GST
kts
5-day plot - Wave Height
WVHT
ft
5-day plot - Dominant Wave Period
DPD
sec
5-day plot - Average Wave Period
APD
sec
5-day plot - Mean Wave Direction
MWD
 
5-day plot - Atmospheric Pressure
PRES
in
5-day plot - Pressure Tendency
PTDY
in
5-day plot - Air Temperature
ATMP
°F
5-day plot - Water Temperature
WTMP
°F
5-day plot - Dew Point
DEWP
°F
5-day plot - Salinity
SAL
psu
5-day plot - Visibility
VIS
nmi
5-day plot - Tide (above MLLW)
TIDE
ft
2024-04-19 12:48 pm W 13.0 15.9----29.94- 49.6 52.5----
2024-04-19 12:42 pm W 12.0 14.0----29.94- 49.3 52.5----
2024-04-19 12:36 pm W 12.0 14.0----29.94- 49.1 52.5----
2024-04-19 12:30 pm W 11.1 13.0----29.94- 48.7 52.5----
2024-04-19 12:24 pm W 12.0 13.0----29.94- 48.7 52.5----
2024-04-19 12:18 pm W 9.9 11.1----29.94- 48.9 52.5----
2024-04-19 12:12 pm W 9.9 12.0----29.94- 48.9 52.5----
2024-04-19 12:06 pmWSW 7.0 9.9----29.93- 49.3 52.5----
2024-04-19 12:00 pm SW 5.1 7.0----29.93+0.13 49.1 52.5----
2024-04-19 11:54 am W 6.0 8.9----29.93- 48.7 52.5----
2024-04-19 11:48 am W 8.0 9.9----29.93- 48.7 52.5----
2024-04-19 11:42 amWNW 8.9 13.0----29.93- 49.1 52.5----
2024-04-19 11:36 amWNW 11.1 14.0----29.92- 49.3 52.5----
2024-04-19 11:30 amWNW 13.0 17.1----29.92- 49.5 52.5----
2024-04-19 11:24 am W 15.9 19.0----29.92- 49.8 52.5----
2024-04-19 11:18 am W 14.0 15.9----29.91- 50.0 52.5----
2024-04-19 11:12 am W 12.0 14.0----29.91- 49.6 52.5----
2024-04-19 11:06 am W 12.0 14.0----29.91- 49.5 52.5----
2024-04-19 11:00 am W 12.0 15.0----29.91+0.12 49.3 52.5----
2024-04-19 10:54 am W 13.0 15.9----29.90- 49.1 52.5----
2024-04-19 10:48 am W 13.0 15.0----29.90- 49.1 52.5----
2024-04-19 10:42 am W 13.0 15.0----29.89- 48.9 52.5----
2024-04-19 10:36 am W 14.0 15.9----29.89- 48.7 52.3----
2024-04-19 10:30 am W 15.0 18.1----29.88- 48.6 52.3----
2024-04-19 10:24 am W 15.9 19.0----29.88- 48.6 52.3----
2024-04-19 10:18 am W 18.1 21.0----29.88- 48.6 52.3----
2024-04-19 10:12 am W 19.0 27.0----29.87- 48.6 52.3----
2024-04-19 10:06 am W 25.1 28.9----29.86- 48.9 52.3----
2024-04-19 10:00 am W 18.1 21.0----29.85+0.08 50.5 52.3----
2024-04-19 09:54 am W 13.0 14.0----29.84- 50.9 52.3----
2024-04-19 09:48 am W 12.0 15.0----29.83- 50.9 52.3----
2024-04-19 09:42 am W 14.0 15.9----29.83- 51.6 52.3----
2024-04-19 09:36 am W 12.0 13.0----29.82- 53.2 52.3----
2024-04-19 09:30 amWSW 8.0 9.9----29.82- 54.1 52.3----
2024-04-19 09:24 amWSW 8.0 8.9----29.81- 54.0 52.3----
2024-04-19 09:18 amWSW 8.0 8.0----29.81- 53.2 52.3----
2024-04-19 09:12 amWSW 6.0 7.0----29.80- 53.4 52.3----
2024-04-19 09:06 amWSW 6.0 8.0----29.80- 54.7 52.3----
2024-04-19 09:00 am W 8.0 8.9----29.80+0.02 57.9 52.3----
2024-04-19 08:54 am SW 5.1 8.0----29.79- 57.7 52.3----
2024-04-19 08:48 am SW 5.1 8.9----29.79- 57.7 52.3----
2024-04-19 08:42 am SW 4.1 8.0----29.79- 57.6 52.2----
2024-04-19 08:36 amSSW 2.9 6.0----29.78- 57.4 52.2----
2024-04-19 08:30 amSSW 2.9 8.0----29.78- 57.2 52.2----
2024-04-19 08:24 am S 1.0 2.9----29.78- 57.0 52.2----
2024-04-19 08:18 am S 1.0 1.9----29.78- 54.9 52.2----
2024-04-19 08:12 am SW 1.0 1.9----29.79- 53.6 52.2----
2024-04-19 08:06 am W 1.0 1.9----29.78- 53.2 52.3----
2024-04-19 08:00 am S 1.9 5.1----29.78+0.06 53.2 52.2----
2024-04-19 07:54 amWNW 6.0 8.0----29.79- 55.6 52.2----
2024-04-19 07:48 amWSW 2.9 4.1----29.78- 55.6 52.2----
2024-04-19 07:42 am- 0.0 2.9----29.78- 55.2 52.2----
2024-04-19 07:36 amSSW 1.9 1.9----29.78- 55.0 52.2----
2024-04-19 07:30 am- 0.0 2.9----29.78- 54.9 52.2----
2024-04-19 07:24 amSSW 1.9 4.1----29.78- 54.9 52.2----
2024-04-19 07:18 am- 0.0 4.1----29.78- 55.0 52.2----
2024-04-19 07:12 am SW 1.9 2.9----29.78- 54.7 52.2----
2024-04-19 07:06 am- 0.0 1.9----29.77- 54.5 52.2----
2024-04-19 07:00 am W 1.0 1.0----29.77+0.01 54.5 52.2----
2024-04-19 06:54 am SE 1.0 1.9----29.78- 55.2 52.2----
2024-04-19 06:48 am S 1.0 1.9----29.78- 55.0 52.2----
2024-04-19 06:42 am SE 1.9 2.9----29.78- 55.6 52.2----
2024-04-19 06:36 am S 1.9 2.9----29.78- 55.6 52.2----
2024-04-19 06:30 am W 5.1 7.0----29.78- 55.6 52.2----
2024-04-19 06:24 amWSW 2.9 5.1----29.79- 56.8 52.2----
2024-04-19 06:18 amWSW 2.9 6.0----29.78- 56.8 52.2----
2024-04-19 06:12 am W 2.9 5.1----29.78- 57.7 52.2----
2024-04-19 06:06 am W 2.9 4.1----29.78- 58.1 52.2----
2024-04-19 06:00 am SW 2.9 5.1----29.78-0.03 57.6 52.2----
2024-04-19 05:54 amSSW 1.9 4.1----29.78- 56.8 52.2----
2024-04-19 05:48 amSSW 1.0 2.9----29.78- 56.5 52.2----
2024-04-19 05:42 amSSW 1.0 8.0----29.79- 57.6 52.0----
2024-04-19 05:36 am W 8.0 12.0----29.81- 56.8 52.2----
2024-04-19 05:30 am W 11.1 24.1----29.81- 58.6 52.0----
2024-04-19 05:24 am W 15.9 26.0----29.81- 59.5 52.0----
2024-04-19 05:18 am W 26.0 32.1----29.80- 60.4 52.0----
2024-04-19 05:12 amWSW 5.1 9.9----29.76- 64.2 52.0----
2024-04-19 05:06 am S 4.1 8.0----29.73- 64.4 52.0----
2024-04-19 05:00 am S 1.0 8.9----29.73-0.12 64.4 52.0----
2024-04-19 04:54 amSSE 4.1 8.0----29.73- 64.6 52.0----
2024-04-19 04:48 am S 4.1 8.0----29.73- 64.6 52.0----
2024-04-19 04:42 am S 4.1 8.0----29.73- 64.6 52.0----
2024-04-19 04:36 amSSE 2.9 9.9----29.73- 64.2 52.0----
2024-04-19 04:30 amSSE 4.1 8.9----29.73- 64.2 52.0----
2024-04-19 04:24 amSSE 2.9 8.0----29.74- 64.0 52.0----
2024-04-19 04:18 amSSE 5.1 11.1----29.75- 63.7 52.0----
2024-04-19 04:12 am SE 1.9 6.0----29.75- 63.9 52.0----
2024-04-19 04:06 amSSE 2.9 13.0----29.76- 63.7 52.0----
2024-04-19 04:00 amSSE 4.1 7.0----29.76-0.12 63.5 52.0----
2024-04-19 03:54 am SE 2.9 7.0----29.76- 63.3 52.0----
2024-04-19 03:48 amSSE 2.9 6.0----29.77- 63.3 52.0----
2024-04-19 03:42 am SE 2.9 8.0----29.77- 63.1 52.0----
2024-04-19 03:36 amSSE 2.9 7.0----29.78- 63.1 52.0----
2024-04-19 03:30 amSSE 4.1 7.0----29.79- 63.0 52.0----
2024-04-19 03:24 amSSE 2.9 7.0----29.79- 63.0 52.0----
2024-04-19 03:18 am SE 1.9 6.0----29.80- 63.0 52.0----
2024-04-19 03:12 am SE 1.9 5.1----29.80- 63.3 52.0----
2024-04-19 03:06 amSSE 2.9 8.0----29.81- 63.1 52.0----
2024-04-19 03:00 am SE 1.0 8.9----29.81-0.11 63.3 52.0----
2024-04-19 02:54 amSSE 1.9 5.1----29.81- 63.0 52.0----
2024-04-19 02:48 amSSE 1.0 5.1----29.82- 63.0 52.0----
2024-04-19 02:42 amSSE 1.9 6.0----29.82- 62.6 52.0----
2024-04-19 02:36 amSSE 1.9 8.0----29.82- 62.6 52.0----
2024-04-19 02:30 amSSE 1.9 5.1----29.83- 62.6 52.0----
2024-04-19 02:24 am SE 1.9 6.0----29.83- 62.4 52.0----
2024-04-19 02:18 amSSE 2.9 7.0----29.84- 62.4 52.0----
2024-04-19 02:12 amSSE 1.9 4.1----29.84- 62.4 52.0----
2024-04-19 02:06 amSSE 2.9 7.0----29.84- 62.4 52.0----
2024-04-19 02:00 am S 2.9 8.9----29.84-0.09 62.8 52.0----
2024-04-19 01:54 am S 1.9 5.1----29.85- 62.8 52.0----
2024-04-19 01:48 amSSE 1.9 4.1----29.85- 62.8 52.0----
2024-04-19 01:42 amENE 1.9 4.1----29.85- 62.8 52.0----
2024-04-19 01:36 am SE 1.9 4.1----29.85- 62.8 52.0----
2024-04-19 01:30 amNNE 1.0 2.9----29.86- 62.4 52.0----
2024-04-19 01:24 am- 0.0 1.9----29.86- 62.4 52.0----
2024-04-19 01:18 amENE 1.9 1.9----29.87- 61.2 52.0----
2024-04-19 01:12 am NE 1.0 1.9----29.87- 58.5 52.0----
2024-04-19 01:06 am NE 1.0 2.9----29.87- 55.2 52.0----
2024-04-19 01:00 amNNE 1.9 2.9----29.88-0.07 54.3 52.0----
2024-04-19 12:54 am NE 1.0 1.9----29.88- 54.3 52.0----
2024-04-19 12:48 am- 0.0 1.0----29.88- 53.8 52.0----
2024-04-19 12:42 am- 0.0 1.0----29.89- 54.5 52.0----
2024-04-19 12:36 am- 0.0 1.0----29.89- 54.3 52.0----
2024-04-19 12:30 am- 0.0 1.0----29.89- 54.3 52.0----
2024-04-19 12:24 am- 0.0 1.0----29.90- 54.1 52.0----
2024-04-19 12:18 am- 0.0 1.9----29.91- 53.6 52.0----
2024-04-19 12:12 am SE 1.9 2.9----29.91- 53.8 52.0----
2024-04-19 12:06 amESE 1.9 1.9----29.91- 54.1 52.0----
2024-04-19 12:00 amESE 1.9 2.9----29.92-0.02 54.0 52.0----
2024-04-18 11:54 pmENE 4.1 6.0----29.92- 53.6 52.0----
2024-04-18 11:48 pm E 1.9 4.1----29.92- 54.3 52.0----
2024-04-18 11:42 pmNNE 4.1 5.1----29.92- 54.5 52.0----
2024-04-18 11:36 pmNNE 2.9 2.9----29.93- 55.4 52.0----
2024-04-18 11:30 pm- 0.0 1.0----29.93- 55.6 52.0----
2024-04-18 11:24 pm- 0.0 1.0----29.93- 57.9 52.0----
2024-04-18 11:18 pm- 0.0 1.0----29.93- 58.1 52.0----
2024-04-18 11:12 pm- 0.0 1.9----29.93- 57.9 52.0----
2024-04-18 11:06 pm- 0.0 1.9----29.93- 57.9 52.0----
2024-04-18 11:00 pm- 0.0 2.9----29.93-0.03 57.6 52.0----
2024-04-18 10:54 pmSSE 1.0 1.9----29.93- 55.8 52.0----
2024-04-18 10:48 pmSSE 1.9 1.9----29.94- 53.1 52.0----
2024-04-18 10:42 pmESE 1.9 2.9----29.94- 53.1 52.0----
2024-04-18 10:36 pm SE 1.0 1.9----29.95- 53.1 52.0----
2024-04-18 10:30 pm E 2.9 7.0----29.95- 53.4 52.0----
2024-04-18 10:24 pmENE 6.0 8.0----29.95- 53.4 52.0----
2024-04-18 10:18 pmENE 5.1 7.0----29.95- 54.0 52.0----
2024-04-18 10:12 pm E 4.1 6.0----29.95- 53.4 51.8----
2024-04-18 10:06 pmENE 5.1 8.0----29.95- 54.3 51.8----
2024-04-18 10:00 pmNNE 7.0 8.9----29.95-0.03 54.9 51.8----
2024-04-18 09:54 pmNNE 5.1 7.0----29.95- 56.3 51.8----
2024-04-18 09:48 pm N 5.1 5.1----29.96- 57.4 51.8----
2024-04-18 09:42 pm N 2.9 4.1----29.95- 58.3 51.8----
2024-04-18 09:36 pm N 2.9 2.9----29.95- 59.4 51.8----
2024-04-18 09:30 pm- 0.0 1.0----29.94- 60.6 51.8----
2024-04-18 09:24 pm- 0.0 1.9----29.94- 59.7 51.8----
2024-04-18 09:18 pmSSE 1.0 1.9----29.94- 59.4 51.8----
2024-04-18 09:12 pm- 0.0 1.0----29.94- 58.8 51.8----
2024-04-18 09:06 pm- 0.0 1.9----29.94- 57.7 51.8----
2024-04-18 09:00 pm- 0.0 1.9----29.94-0.07 57.0 51.8----
2024-04-18 08:54 pm- 0.0 1.0----29.94- 55.2 51.8----
2024-04-18 08:48 pm- 0.0 1.9----29.94- 54.3 51.8----
2024-04-18 08:42 pm E 2.9 5.1----29.93- 54.0 51.8----
2024-04-18 08:36 pm E 2.9 4.1----29.95- 53.8 51.8----
2024-04-18 08:30 pm SE 1.9 1.9----29.96- 54.0 51.8----
2024-04-18 08:24 pm SE 1.9 4.1----29.96- 54.0 51.8----
2024-04-18 08:18 pm E 2.9 5.1----29.96- 54.1 51.8----
2024-04-18 08:12 pmESE 1.0 5.1----29.96- 54.5 51.8----
2024-04-18 08:06 pmENE 5.1 6.0----29.96- 54.5 51.6----
2024-04-18 08:00 pmENE 5.1 7.0----29.96-0.06 55.0 51.6----
2024-04-18 07:54 pmENE 8.0 8.9----29.96- 55.0 51.6----
2024-04-18 07:48 pmENE 8.0 8.9----29.96- 54.9 51.6----
2024-04-18 07:42 pmENE 8.0 9.9----29.96- 55.0 51.6----
2024-04-18 07:36 pmENE 8.9 11.1----29.97- 54.9 51.6----
2024-04-18 07:30 pmENE 8.0 8.9----29.97- 55.0 51.8----
2024-04-18 07:24 pmENE 8.0 8.9----29.98- 55.0 51.6----
2024-04-18 07:18 pmENE 8.0 8.9----29.98- 55.6 51.6----
2024-04-18 07:12 pmENE 7.0 8.9----29.98- 55.6 51.6----
2024-04-18 07:06 pmENE 8.9 11.1----29.98- 55.6 51.6----
2024-04-18 07:00 pmENE 8.9 11.1----29.98-0.04 55.4 51.6----
2024-04-18 06:54 pmENE 8.9 9.9----29.99- 55.4 51.6----
2024-04-18 06:48 pmENE 8.9 9.9----29.99- 55.6 51.6----
2024-04-18 06:42 pm E 8.0 8.9----29.99- 55.2 51.6----
2024-04-18 06:36 pmENE 7.0 8.0----30.00- 54.9 51.6----
2024-04-18 06:30 pmENE 7.0 8.0----30.00- 55.2 51.6----
2024-04-18 06:24 pmENE 6.0 8.0----30.01- 55.4 51.6----
2024-04-18 06:18 pm NE 6.0 7.0----30.01- 55.2 51.6----
2024-04-18 06:12 pm NE 6.0 7.0----30.01- 55.6 51.6----
2024-04-18 06:06 pm NE 7.0 8.9----30.01- 55.4 51.6----
2024-04-18 06:00 pm NE 8.0 8.9----30.01-0.03- 51.6----
2024-04-18 05:54 pm NE 7.0 8.0----30.01-- 51.6----
2024-04-18 05:48 pm NE 7.0 8.0----30.01- 55.9 51.6----
2024-04-18 05:42 pm NE 7.0 7.0----30.01- 55.8 51.6----
2024-04-18 05:36 pmENE 6.0 7.0----30.01- 55.4 51.6----
2024-04-18 05:30 pmENE 6.0 7.0----30.01- 55.6 51.6----
2024-04-18 05:24 pmENE 7.0 8.0----30.01- 55.8 51.6----
2024-04-18 05:18 pmENE 7.0 8.0----30.01- 55.0 51.6----
2024-04-18 05:12 pm E 7.0 7.0----30.01- 54.9 51.6----
2024-04-18 05:06 pm E 6.0 7.0----30.02- 54.9 51.6----
2024-04-18 05:00 pmENE 5.1 6.0----30.02-0.01 54.7 51.6----
2024-04-18 04:54 pmENE 6.0 6.0----30.02- 55.0 51.4----
2024-04-18 04:48 pmENE 4.1 5.1----30.03- 55.2 51.6----
2024-04-18 04:42 pmENE 2.9 4.1----30.03- 55.6 51.4----
2024-04-18 04:36 pmENE 2.9 4.1----30.03- 55.6 51.6----
2024-04-18 04:30 pm NE 4.1 4.1----30.03- 54.9 51.4----
2024-04-18 04:24 pm NE 2.9 5.1----30.03- 54.5 51.4----
2024-04-18 04:18 pm NE 5.1 5.1----30.03- 54.9 51.4----
2024-04-18 04:12 pmNNE 2.9 4.1----30.03- 55.4 51.4----
2024-04-18 04:06 pm NE 4.1 5.1----30.02- 55.6 51.4----
2024-04-18 04:00 pm NE 4.1 5.1----30.02-0.01 55.2 51.4----
2024-04-18 03:54 pmENE 4.1 5.1----30.02- 54.7 51.4----
2024-04-18 03:48 pmENE 5.1 6.0----30.02- 54.7 51.4----
2024-04-18 03:42 pmENE 4.1 5.1----30.02- 54.3 51.4----
2024-04-18 03:36 pm NE 4.1 4.1----30.03- 54.5 51.4----
2024-04-18 03:30 pmENE 2.9 4.1----30.03- 54.3 51.4----
2024-04-18 03:24 pm NE 2.9 4.1----30.03- 54.3 51.4----
2024-04-18 03:18 pmNNE 2.9 4.1----30.03- 54.0 51.4----
2024-04-18 03:12 pm NE 4.1 5.1----30.04- 53.6 51.4----
2024-04-18 03:06 pm NE 2.9 5.1----30.04- 54.0 51.4----
2024-04-18 03:00 pm NE 2.9 2.9----30.04+0.00 54.9 51.4----
2024-04-18 02:54 pm N 2.9 4.1----30.04- 53.6 51.4----
2024-04-18 02:48 pm N 2.9 4.1----30.04- 53.8 51.4----
2024-04-18 02:42 pm N 2.9 5.1----30.05- 53.8 51.4----
2024-04-18 02:36 pmNNW 4.1 5.1----30.05- 53.6 51.4----
2024-04-18 02:30 pmNNW 4.1 5.1----30.04- 53.1 51.4----
2024-04-18 02:24 pm NW 5.1 6.0----30.05- 53.1 51.4----
2024-04-18 02:18 pm NW 4.1 5.1----30.05- 53.2 51.4----
2024-04-18 02:12 pm NW 2.9 4.1----30.04- 52.7 51.4----
2024-04-18 02:06 pm NW 2.9 4.1----30.04- 53.2 51.4----
2024-04-18 02:00 pmNNW 2.9 4.1----30.04+0.00 52.9 51.4----
2024-04-18 01:54 pmNNW 2.9 4.1----30.04- 53.4 51.4----
2024-04-18 01:48 pmNNW 2.9 4.1----30.04- 53.1 51.4----
2024-04-18 01:42 pmNNW 2.9 5.1----30.04- 52.7 51.4----
2024-04-18 01:36 pm N 2.9 4.1----30.03- 53.2 51.4----
2024-04-18 01:30 pm N 2.9 5.1----30.03- 52.7 51.4----
2024-04-18 01:24 pm NW 4.1 5.1----30.03- 52.7 51.4----
2024-04-18 01:18 pm NW 4.1 5.1----30.03- 52.9 51.4----
2024-04-18 01:12 pm NW 4.1 4.1----30.04- 52.7 51.4----
2024-04-18 01:06 pm NW 4.1 5.1----30.03- 52.5 51.4----
2024-04-18 01:00 pmWNW 4.1 6.0----30.03+0.01 52.5 51.4----
2024-04-18 12:54 pmWNW 5.1 6.0----30.03- 52.2 51.4----